Tracking 19247 objects as of 24-Sep-2018
HD Live streaming from Space Station
objects crossing your sky now

FENGYUN 1C DEB

Track FENGYUN 1C DEB now!
10-day predictions


NORAD ID: 30761
Int'l Code: 1999-025ATX
Perigee: 742.8 km
Apogee: 880.8 km
Inclination: 99.1 °
Period: 101.0 minutes
Semi major axis: 7182 km
RCS: 0.0135 m2 (small)
Launch date: May 10, 1999
Source: People's Republic of China (PRC)
Launch site: Taiyaun Space Center, China (TSC)

Note: This is SATELLITE DEBRIS
aabbcc
Your satellite tracking list
Your tracking list is empty




NASA's NSSDC Master Catalog

Two Line Element Set (TLE):
1 30761U 99025ATX 18266.38792048 +.00000285 +00000-0 +13218-3 0  9999
2 30761 099.0679 060.3665 0096046 025.1192 335.4614 14.26134915600840
Source of the keplerian elements: AFSPC